{"data":{"norad_id":58286,"epoch":"2026-06-16T04:27:28.393920Z","epoch_age_seconds":8335914,"freshness":"OLD","line1":"1 58286U 23174AG  26167.18574530  .00045836  00000+0  60587-3 0  9995","line2":"2 58286  97.3943 259.5556 0006130 154.3137 205.8425 15.58199153145640","mean_motion":15.58199153,"eccentricity":0.000613,"inclination_deg":97.3943,"raan_deg":259.5556,"arg_perigee_deg":154.3137,"mean_anomaly_deg":205.8425,"bstar":0.00060587,"rev_number":14564,"period_min":92.414374454483,"perigee_km":388.71837419739,"apogee_km":397.01962755446,"semimajor_km":6771.0060008759,"source":"CELESTRAK","updated_at":"2026-06-18T09:00:49.564359Z"}}